Weekly Spill Flow - Aviemore,,
Period ended,m�,QC
1980-01-15,225994406,200
1980-01-22,200690784,200
1980-01-29,126447955,200
1980-02-05,180339868,200
1980-02-12,146885356,200
1980-02-19,42948057,200
1980-02-26,0,200
1980-03-04,0,200
1980-03-11,0,200
1980-03-18,0,200
1980-03-25,0,200
1980-04-01,0,200
1980-04-08,0,200
1980-04-15,0,200
1980-04-22,0,200
1980-04-29,0,200
1980-05-06,0,200
1980-05-13,0,200
1980-05-20,0,200
1980-05-27,0,200
1980-06-03,0,200
1980-06-10,0,200
1980-06-17,0,200
1980-06-24,0,200
1980-07-01,0,200
1980-07-08,0,200
1980-07-15,0,200
1980-07-22,0,200
1980-07-29,0,200
1980-08-05,0,200
1980-08-12,0,200
1980-08-19,0,200
1980-08-26,0,200
1980-09-02,0,200
1980-09-09,0,200
1980-09-16,0,200
1980-09-23,0,200
1980-09-30,0,200
1980-10-07,0,200
1980-10-14,0,200
1980-10-21,0,200
1980-10-28,0,200
1980-11-04,49950432,200
1980-11-11,143015241,200
1980-11-18,64666425,200
1980-11-25,0,200
1980-12-02,0,200
1980-12-09,0,200
1980-12-16,0,200
1980-12-23,0,200
1980-12-30,0,200
1981-01-06,0,200
1981-01-13,0,200
1981-01-20,0,200
1981-01-27,0,200
1981-02-03,0,200
1981-02-10,0,200
1981-02-17,0,200
1981-02-24,25396761,200
1981-03-03,28873756,200
1981-03-10,26345088,200
1981-03-17,127347897,200
1981-03-24,59574614,200
1981-03-31,116860060,200
1981-04-07,57332016,200
1981-04-14,0,200
1981-04-21,0,200
1981-04-28,0,200
1981-05-05,0,200
1981-05-12,0,200
1981-05-19,0,200
1981-05-26,0,200
1981-06-02,0,200
1981-06-09,0,200
1981-06-16,0,200
1981-06-23,0,200
1981-06-30,0,200
1981-07-07,0,200
1981-07-14,0,200
1981-07-21,0,200
1981-07-28,0,200
1981-08-04,0,200
1981-08-11,0,200
1981-08-18,0,200
1981-08-25,0,200
1981-09-01,0,200
1981-09-08,0,200
1981-09-15,0,200
1981-09-22,0,200
1981-09-29,0,200
1981-10-06,0,200
1981-10-13,0,200
1981-10-20,0,200
1981-10-27,0,200
1981-11-03,0,200
1981-11-10,0,200
1981-11-17,0,200
1981-11-24,0,200
1981-12-01,0,200
1981-12-08,0,200
1981-12-15,0,200
1981-12-22,0,200
1981-12-29,0,200
1982-01-05,0,200
1982-01-12,0,200
1982-01-19,0,200
1982-01-26,0,200
1982-02-02,0,200
1982-02-09,0,200
1982-02-16,0,200
1982-02-23,0,200
1982-03-02,1787184,200
1982-03-09,46268409,200
1982-03-16,169893158,200
1982-03-23,148904179,200
1982-03-30,9126432,200
1982-04-06,0,200
1982-04-13,0,200
1982-04-20,0,200
1982-04-27,0,200
1982-05-04,0,200
1982-05-11,0,200
1982-05-18,0,200
1982-05-25,0,200
1982-06-01,0,200
1982-06-08,0,200
1982-06-15,0,200
1982-06-22,0,200
1982-06-29,0,200
1982-07-06,0,200
1982-07-13,0,200
1982-07-20,0,200
1982-07-27,0,200
1982-08-03,0,200
1982-08-10,0,200
1982-08-17,0,200
1982-08-24,0,200
1982-08-31,0,200
1982-09-07,0,200
1982-09-14,0,200
1982-09-21,0,200
1982-09-28,0,200
1982-10-05,0,200
1982-10-12,0,200
1982-10-19,0,200
1982-10-26,0,200
1982-11-02,0,200
1982-11-09,0,200
1982-11-16,0,200
1982-11-23,0,200
1982-11-30,0,200
1982-12-07,0,200
1982-12-14,0,200
1982-12-21,0,200
1982-12-28,0,200
1983-01-04,0,200
1983-01-11,0,200
1983-01-18,71039808,200
1983-01-25,0,200
1983-02-01,0,200
1983-02-08,0,200
1983-02-15,0,200
1983-02-22,0,200
1983-03-01,0,200
1983-03-08,0,200
1983-03-15,0,200
1983-03-22,0,200
1983-03-29,0,200
1983-04-05,0,200
1983-04-12,0,200
1983-04-19,0,200
1983-04-26,0,200
1983-05-03,0,200
1983-05-10,0,200
1983-05-17,76783593,200
1983-05-24,7425734,200
1983-05-31,0,200
1983-06-07,0,200
1983-06-14,0,200
1983-06-21,0,200
1983-06-28,0,200
1983-07-05,0,200
1983-07-12,0,200
1983-07-19,0,200
1983-07-26,0,200
1983-08-02,0,200
1983-08-09,0,200
1983-08-16,0,200
1983-08-23,0,200
1983-08-30,0,200
1983-09-06,0,200
1983-09-13,0,200
1983-09-20,0,200
1983-09-27,0,200
1983-10-04,0,200
1983-10-11,0,200
1983-10-18,0,200
1983-10-25,229219,200
1983-11-01,0,200
1983-11-08,0,200
1983-11-15,0,200
1983-11-22,69285888,200
1983-11-29,111162240,200
1983-12-06,70488835,200
1983-12-13,50612688,200
1983-12-20,121552704,200
1983-12-27,102034598,200
1984-01-03,51492067,200
1984-01-10,0,200
1984-01-17,13849920,200
1984-01-24,0,200
1984-01-31,65553667,200
1984-02-07,109086566,200
1984-02-14,76707388,200
1984-02-21,129653395,200
1984-02-28,5377881,200
1984-03-06,0,200
1984-03-13,0,200
1984-03-20,0,200
1984-03-27,0,200
1984-04-03,0,200
1984-04-10,0,200
1984-04-17,0,200
1984-04-24,0,200
1984-05-01,0,200
1984-05-08,0,200
1984-05-15,0,200
1984-05-22,0,200
1984-05-29,0,200
1984-06-05,0,200
1984-06-12,0,200
1984-06-19,0,200
1984-06-26,0,200
1984-07-03,0,200
1984-07-10,0,200
1984-07-17,0,200
1984-07-24,0,200
1984-07-31,0,200
1984-08-07,0,200
1984-08-14,0,200
1984-08-21,0,200
1984-08-28,0,200
1984-09-04,0,200
1984-09-11,0,200
1984-09-18,0,200
1984-09-25,0,200
1984-10-02,0,200
1984-10-09,0,200
1984-10-16,0,200
1984-10-23,0,200
1984-10-30,0,200
1984-11-06,0,200
1984-11-13,0,200
1984-11-20,0,200
1984-11-27,0,200
1984-12-04,0,200
1984-12-11,0,200
1984-12-18,0,200
1984-12-25,208588867,200
1985-01-01,226231488,200
1985-01-08,171394876,200
1985-01-15,194255712,200
1985-01-22,137602886,200
1985-01-29,7901107,200
1985-02-05,0,200
1985-02-12,0,200
1985-02-19,0,200
1985-02-26,0,200
1985-03-05,0,200
1985-03-12,0,200
1985-03-19,0,200
1985-03-26,0,200
1985-04-02,0,200
1985-04-09,0,200
1985-04-16,0,200
1985-04-23,0,200
1985-04-30,0,200
1985-05-07,0,200
1985-05-14,0,200
1985-05-21,0,200
1985-05-28,0,200
1985-06-04,0,200
1985-06-11,0,200
1985-06-18,0,200
1985-06-25,0,200
1985-07-02,0,200
1985-07-09,0,200
1985-07-16,0,200
1985-07-23,0,200
1985-07-30,0,200
1985-08-06,0,200
1985-08-13,0,200
1985-08-20,0,200
1985-08-27,0,200
1985-09-03,0,200
1985-09-10,0,200
1985-09-17,0,200
1985-09-24,0,200
1985-10-01,0,200
1985-10-08,0,200
1985-10-15,0,200
1985-10-22,0,200
1985-10-29,0,200
1985-11-05,0,200
1985-11-12,0,200
1985-11-19,0,200
1985-11-26,0,200
1985-12-03,0,200
1985-12-10,0,200
1985-12-17,0,200
1985-12-24,0,200
1985-12-31,0,200
1986-01-07,0,200
1986-01-14,0,200
1986-01-21,0,200
1986-01-28,0,200
1986-02-04,0,200
1986-02-11,0,200
1986-02-18,0,200
1986-02-25,0,200
1986-03-04,0,200
1986-03-11,0,200
1986-03-18,68365382,200
1986-03-25,0,200
1986-04-01,0,200
1986-04-08,0,200
1986-04-15,0,200
1986-04-22,0,200
1986-04-29,0,200
1986-05-06,0,200
1986-05-13,0,200
1986-05-20,0,200
1986-05-27,0,200
1986-06-03,0,200
1986-06-10,0,200
1986-06-17,0,200
1986-06-24,0,200
1986-07-01,0,200
1986-07-08,0,200
1986-07-15,0,200
1986-07-22,0,200
1986-07-29,0,200
1986-08-05,2419,200
1986-08-12,0,200
1986-08-19,0,200
1986-08-26,0,200
1986-09-02,0,200
1986-09-09,0,200
1986-09-16,0,200
1986-09-23,0,200
1986-09-30,0,200
1986-10-07,0,200
1986-10-14,0,200
1986-10-21,0,200
1986-10-28,0,200
1986-11-04,0,200
1986-11-11,0,200
1986-11-18,0,200
1986-11-25,0,200
1986-12-02,0,200
1986-12-09,0,200
1986-12-16,0,200
1986-12-23,0,200
1986-12-30,0,200
1987-01-06,0,200
1987-01-13,0,200
1987-01-20,0,200
1987-01-27,0,200
1987-02-03,0,200
1987-02-10,0,200
1987-02-17,0,200
1987-02-24,0,200
1987-03-03,0,200
1987-03-10,0,200
1987-03-17,275324918,200
1987-03-24,50636275,200
1987-03-31,0,200
1987-04-07,119550211,200
1987-04-14,18649008,200
1987-04-21,0,200
1987-04-28,0,200
1987-05-05,0,200
1987-05-12,0,200
1987-05-19,0,200
1987-05-26,0,200
1987-06-02,0,200
1987-06-09,0,200
1987-06-16,0,200
1987-06-23,0,200
1987-06-30,0,200
1987-07-07,0,200
1987-07-14,0,200
1987-07-21,0,200
1987-07-28,0,200
1987-08-04,0,200
1987-08-11,0,200
1987-08-18,0,200
1987-08-25,0,200
1987-09-01,0,200
1987-09-08,0,200
1987-09-15,0,200
1987-09-22,0,200
1987-09-29,0,200
1987-10-06,0,200
1987-10-13,0,200
1987-10-20,0,200
1987-10-27,0,200
1987-11-03,0,200
1987-11-10,0,200
1987-11-17,0,200
1987-11-24,0,200
1987-12-01,0,200
1987-12-08,0,200
1987-12-15,0,200
1987-12-22,0,200
1987-12-29,0,200
1988-01-05,0,200
1988-01-12,0,200
1988-01-19,0,200
1988-01-26,0,200
1988-02-02,0,200
1988-02-09,0,200
1988-02-16,0,200
1988-02-23,0,200
1988-03-01,0,200
1988-03-08,0,200
1988-03-15,0,200
1988-03-22,0,200
1988-03-29,0,200
1988-04-05,0,200
1988-04-12,0,200
1988-04-19,0,200
1988-04-26,0,200
1988-05-03,0,200
1988-05-10,0,200
1988-05-17,0,200
1988-05-24,0,200
1988-05-31,0,200
1988-06-07,0,200
1988-06-14,0,200
1988-06-21,0,200
1988-06-28,0,200
1988-07-05,0,200
1988-07-12,0,200
1988-07-19,0,200
1988-07-26,0,200
1988-08-02,0,200
1988-08-09,0,200
1988-08-16,0,200
1988-08-23,0,200
1988-08-30,0,200
1988-09-06,0,200
1988-09-13,0,200
1988-09-20,0,200
1988-09-27,0,200
1988-10-04,0,200
1988-10-11,0,200
1988-10-18,6997536,200
1988-10-25,0,200
1988-11-01,0,200
1988-11-08,42640214,200
1988-11-15,39044678,200
1988-11-22,14636764,200
1988-11-29,59751216,200
1988-12-06,94437100,200
1988-12-13,58859740,200
1988-12-20,119925792,200
1988-12-27,15819753,200
1989-01-03,688867,200
1989-01-10,679795,200
1989-01-17,0,200
1989-01-24,0,200
1989-01-31,0,200
1989-02-07,0,200
1989-02-14,0,200
1989-02-21,0,200
1989-02-28,0,200
1989-03-07,0,200
1989-03-14,0,200
1989-03-21,147963715,200
1989-03-28,0,200
1989-04-04,0,200
1989-04-11,0,200
1989-04-18,0,200
1989-04-25,0,200
1989-05-02,0,200
1989-05-09,0,200
1989-05-16,0,200
1989-05-23,0,200
1989-05-30,0,200
1989-06-06,0,200
1989-06-13,0,200
1989-06-20,0,200
1989-06-27,0,200
1989-07-04,0,200
1989-07-11,0,200
1989-07-18,0,200
1989-07-25,0,200
1989-08-01,0,200
1989-08-08,0,200
1989-08-15,0,200
1989-08-22,0,200
1989-08-29,0,200
1989-09-05,0,200
1989-09-12,0,200
1989-09-19,0,200
1989-09-26,0,200
1989-10-03,0,200
1989-10-10,0,200
1989-10-17,0,200
1989-10-24,0,200
1989-10-31,0,200
1989-11-07,260668,200
1989-11-14,0,200
1989-11-21,0,200
1989-11-28,0,200
1989-12-05,0,200
1989-12-12,0,200
1989-12-19,0,200
1989-12-26,0,200
1990-01-02,8003923,200
1990-01-09,0,200
1990-01-16,0,200
1990-01-23,0,200
1990-01-30,0,200
1990-02-06,0,200
1990-02-13,0,200
1990-02-20,0,200
1990-02-27,0,200
1990-03-06,0,200
1990-03-13,0,200
1990-03-20,0,200
1990-03-27,0,200
1990-04-03,0,200
1990-04-10,0,200
1990-04-17,0,200
1990-04-24,0,200
1990-05-01,0,200
1990-05-08,0,200
1990-05-15,0,200
1990-05-22,0,200
1990-05-29,0,200
1990-06-05,0,200
1990-06-12,0,200
1990-06-19,0,200
1990-06-26,0,200
1990-07-03,0,200
1990-07-10,0,200
1990-07-17,0,200
1990-07-24,0,200
1990-07-31,0,200
1990-08-07,0,200
1990-08-14,0,200
1990-08-21,0,200
1990-08-28,0,200
1990-09-04,0,200
1990-09-11,0,200
1990-09-18,0,200
1990-09-25,0,200
1990-10-02,0,200
1990-10-09,0,200
1990-10-16,0,200
1990-10-23,0,200
1990-10-30,0,200
1990-11-06,0,200
1990-11-13,0,200
1990-11-20,0,200
1990-11-27,0,200
1990-12-04,0,200
1990-12-11,0,200
1990-12-18,88957008,200
1990-12-25,0,200
1991-01-01,0,200
1991-01-08,0,200
1991-01-15,0,200
1991-01-22,0,200
1991-01-29,0,200
1991-02-05,0,200
1991-02-12,0,200
1991-02-19,39580531,200
1991-02-26,194406307,200
1991-03-05,129853584,200
1991-03-12,90495014,200
1991-03-19,0,200
1991-03-26,0,200
1991-04-02,0,200
1991-04-09,0,200
1991-04-16,0,200
1991-04-23,0,200
1991-04-30,0,200
1991-05-07,0,200
1991-05-14,0,200
1991-05-21,0,200
1991-05-28,0,200
1991-06-04,0,200
1991-06-11,0,200
1991-06-18,0,200
1991-06-25,0,200
1991-07-02,0,200
1991-07-09,0,200
1991-07-16,0,200
1991-07-23,0,200
1991-07-30,0,200
1991-08-06,0,200
1991-08-13,0,200
1991-08-20,3058473,200
1991-08-27,0,200
1991-09-03,0,200
1991-09-10,0,200
1991-09-17,52127712,200
1991-09-24,0,200
1991-10-01,0,200
1991-10-08,0,200
1991-10-15,0,200
1991-10-22,0,200
1991-10-29,0,200
1991-11-05,0,200
1991-11-12,0,200
1991-11-19,0,200
1991-11-26,0,200
1991-12-03,0,200
1991-12-10,0,200
1991-12-17,0,200
1991-12-24,0,200
1991-12-31,0,200
1992-01-07,0,200
1992-01-14,0,200
1992-01-21,0,200
1992-01-28,0,200
1992-02-04,0,200
1992-02-11,0,200
1992-02-18,0,200
1992-02-25,0,200
1992-03-03,0,200
1992-03-10,0,200
1992-03-17,0,200
1992-03-24,0,200
1992-03-31,0,200
1992-04-07,0,200
1992-04-14,0,200
1992-04-21,0,200
1992-04-28,0,200
1992-05-05,0,200
1992-05-12,0,200
1992-05-19,0,200
1992-05-26,0,200
1992-06-02,0,200
1992-06-09,0,200
1992-06-16,0,200
1992-06-23,0,200
1992-06-30,0,200
1992-07-07,0,200
1992-07-14,0,200
1992-07-21,0,200
1992-07-28,0,200
1992-08-04,0,200
1992-08-11,0,200
1992-08-18,0,200
1992-08-25,0,200
1992-09-01,0,200
1992-09-08,0,200
1992-09-15,0,200
1992-09-22,0,200
1992-09-29,0,200
1992-10-06,0,200
1992-10-13,0,200
1992-10-20,0,200
1992-10-27,0,200
1992-11-03,0,200
1992-11-10,0,200
1992-11-17,0,200
1992-11-24,0,200
1992-12-01,0,200
1992-12-08,0,200
1992-12-15,0,200
1992-12-22,0,200
1992-12-29,0,200
1993-01-05,0,200
1993-01-12,0,200
1993-01-19,0,200
1993-01-26,0,200
1993-02-02,0,200
1993-02-09,0,200
1993-02-16,0,200
1993-02-23,0,200
1993-03-02,0,200
1993-03-09,0,200
1993-03-16,0,200
1993-03-23,0,200
1993-03-30,0,200
1993-04-06,0,200
1993-04-13,0,200
1993-04-20,0,200
1993-04-27,0,200
1993-05-04,0,200
1993-05-11,0,200
1993-05-18,0,200
1993-05-25,0,200
1993-06-01,0,200
1993-06-08,0,200
1993-06-15,0,200
1993-06-22,0,200
1993-06-29,0,200
1993-07-06,0,200
1993-07-13,0,200
1993-07-20,0,200
1993-07-27,0,200
1993-08-03,0,200
1993-08-10,0,200
1993-08-17,0,200
1993-08-24,0,200
1993-08-31,0,200
1993-09-07,0,200
1993-09-14,0,200
1993-09-21,0,200
1993-09-28,0,200
1993-10-05,0,200
1993-10-12,0,200
1993-10-19,0,200
1993-10-26,0,200
1993-11-02,0,200
1993-11-09,0,200
1993-11-16,0,200
1993-11-23,0,200
1993-11-30,0,200
1993-12-07,0,200
1993-12-14,0,200
1993-12-21,0,200
1993-12-28,0,200
1994-01-04,0,200
1994-01-11,36787564,200
1994-01-18,73950710,200
1994-01-25,21810902,200
1994-02-01,26284003,200
1994-02-08,0,200
1994-02-15,0,200
1994-02-22,0,200
1994-03-01,0,200
1994-03-08,0,200
1994-03-15,0,200
1994-03-22,0,200
1994-03-29,0,200
1994-04-05,0,200
1994-04-12,0,200
1994-04-19,0,200
1994-04-26,0,200
1994-05-03,0,200
1994-05-10,0,200
1994-05-17,0,200
1994-05-24,0,200
1994-05-31,0,200
1994-06-07,0,200
1994-06-14,0,200
1994-06-21,0,200
1994-06-28,0,200
1994-07-05,0,200
1994-07-12,0,200
1994-07-19,0,200
1994-07-26,0,200
1994-08-02,0,200
1994-08-09,0,200
1994-08-16,0,200
1994-08-23,0,200
1994-08-30,0,200
1994-09-06,0,200
1994-09-13,0,200
1994-09-20,0,200
1994-09-27,0,200
1994-10-04,0,200
1994-10-11,0,200
1994-10-18,0,200
1994-10-25,0,200
1994-11-01,0,200
1994-11-08,3342124,200
1994-11-15,163363737,200
1994-11-22,72779817,200
1994-11-29,42951081,200
1994-12-06,0,200
1994-12-13,0,200
1994-12-20,0,200
1994-12-27,0,200
1995-01-03,0,200
1995-01-10,0,200
1995-01-17,0,200
1995-01-24,0,200
1995-01-31,0,200
1995-02-07,0,200
1995-02-14,0,200
1995-02-21,0,200
1995-02-28,0,200
1995-03-07,0,200
1995-03-14,0,200
1995-03-21,0,200
1995-03-28,0,200
1995-04-04,0,200
1995-04-11,0,200
1995-04-18,26075347,200
1995-04-25,0,200
1995-05-02,0,200
1995-05-09,0,200
1995-05-16,0,200
1995-05-23,0,200
1995-05-30,0,200
1995-06-06,0,200
1995-06-13,0,200
1995-06-20,0,200
1995-06-27,0,200
1995-07-04,0,200
1995-07-11,0,200
1995-07-18,0,200
1995-07-25,0,200
1995-08-01,0,200
1995-08-08,0,200
1995-08-15,0,200
1995-08-22,0,200
1995-08-29,0,200
1995-09-05,0,200
1995-09-12,0,200
1995-09-19,0,200
1995-09-26,0,200
1995-10-03,0,200
1995-10-10,0,200
1995-10-17,0,200
1995-10-24,0,200
1995-10-31,0,200
1995-11-07,0,200
1995-11-14,0,200
1995-11-21,0,200
1995-11-28,0,200
1995-12-05,0,200
1995-12-12,0,200
1995-12-19,438090508,200
1995-12-26,265400755,200
1996-01-02,388786608,200
1996-01-09,191268604,200
1996-01-16,11593411,200
1996-01-23,52274678,200
1996-01-30,9384681,200
1996-02-06,0,200
1996-02-13,0,200
1996-02-20,25010294,200
1996-02-27,2830464,200
1996-03-05,0,200
1996-03-12,0,200
1996-03-19,0,200
1996-03-26,0,200
1996-04-02,0,200
1996-04-09,0,200
1996-04-16,0,200
1996-04-23,0,200
1996-04-30,0,200
1996-05-07,0,200
1996-05-14,0,200
1996-05-21,0,200
1996-05-28,0,200
1996-06-04,0,200
1996-06-11,0,200
1996-06-18,0,200
1996-06-25,0,200
1996-07-02,0,200
1996-07-09,0,200
1996-07-16,0,200
1996-07-23,0,200
1996-07-30,0,200
1996-08-06,0,200
1996-08-13,0,200
1996-08-20,0,200
1996-08-27,0,200
1996-09-03,0,200
1996-09-10,0,200
1996-09-17,0,200
1996-09-24,0,200
1996-10-01,0,200
1996-10-08,0,200
1996-10-15,0,200
1996-10-22,0,200
1996-10-29,0,200
1996-11-05,0,200
1996-11-12,0,200
1996-11-19,0,200
1996-11-26,0,200
1996-12-03,0,200
1996-12-10,0,200
1996-12-17,0,200
1996-12-24,0,200
1996-12-31,0,200
1997-01-07,0,200
1997-01-14,0,200
1997-01-21,0,200
1997-01-28,0,200
1997-02-04,0,200
1997-02-11,0,200
1997-02-18,0,200
1997-02-25,0,200
1997-03-04,0,200
1997-03-11,0,200
1997-03-18,0,200
1997-03-25,0,200
1997-04-01,53827,200
1997-04-08,0,200
1997-04-15,107049,200
1997-04-22,0,200
1997-04-29,0,200
1997-05-06,0,200
1997-05-13,0,200
1997-05-20,0,200
1997-05-27,0,200
1997-06-03,0,200
1997-06-10,0,200
1997-06-17,0,200
1997-06-24,0,200
1997-07-01,0,200
1997-07-08,0,200
1997-07-15,0,200
1997-07-22,0,200
1997-07-29,69552,200
1997-08-05,0,200
1997-08-12,0,200
1997-08-19,0,200
1997-08-26,0,200
1997-09-02,0,200
1997-09-09,0,200
1997-09-16,0,200
1997-09-23,0,200
1997-09-30,0,200
1997-10-07,0,200
1997-10-14,0,200
1997-10-21,0,200
1997-10-28,0,200
1997-11-04,0,200
1997-11-11,0,200
1997-11-18,0,200
1997-11-25,0,200
1997-12-02,0,200
1997-12-09,0,200
1997-12-16,0,200
1997-12-23,13305,200
1997-12-30,6782227,200
1998-01-06,0,200
1998-01-13,0,200
1998-01-20,0,200
1998-01-27,0,200
1998-02-03,0,200
1998-02-10,0,200
1998-02-17,0,200
1998-02-24,57456,200
1998-03-03,22866883,200
1998-03-10,93254716,200
1998-03-17,169893158,200
1998-03-24,21335529,200
1998-03-31,1227744,200
1998-04-07,100889107,200
1998-04-14,7667049,200
1998-04-21,0,200
1998-04-28,0,200
1998-05-05,0,200
1998-05-12,0,200
1998-05-19,0,200
1998-05-26,5093020,200
1998-06-02,0,200
1998-06-09,0,200
1998-06-16,0,200
1998-06-23,0,200
1998-06-30,0,200
1998-07-07,0,200
1998-07-14,0,200
1998-07-21,0,200
1998-07-28,0,200
1998-08-04,0,200
1998-08-11,0,200
1998-08-18,0,200
1998-08-25,0,200
1998-09-01,0,200
1998-09-08,0,200
1998-09-15,0,200
1998-09-22,0,200
1998-09-29,0,200
1998-10-06,0,200
1998-10-13,0,200
1998-10-20,0,200
1998-10-27,38343715,200
1998-11-03,112125686,200
1998-11-10,168953904,200
1998-11-17,3710448,200
1998-11-24,0,200
1998-12-01,0,200
1998-12-08,0,200
1998-12-15,25401,200
1998-12-22,0,200
1998-12-29,0,200
1999-01-05,0,200
1999-01-12,0,200
1999-01-19,0,200
1999-01-26,0,200
1999-02-02,0,200
1999-02-09,0,200
1999-02-16,0,200
1999-02-23,19958,200
1999-03-02,3024,200
1999-03-09,604,200
1999-03-16,787449,200
1999-03-23,0,200
1999-03-30,708825,200
1999-04-06,1770249,200
1999-04-13,1814,200
1999-04-20,0,200
1999-04-27,0,200
1999-05-04,0,200
1999-05-11,0,200
1999-05-18,0,200
1999-05-25,0,200
1999-06-01,0,200
1999-06-08,0,200
1999-06-15,0,200
1999-06-22,0,200
1999-06-29,0,200
1999-07-06,0,200
1999-07-13,0,200
1999-07-20,0,200
1999-07-27,0,200
1999-08-03,0,200
1999-08-10,0,200
1999-08-17,0,200
1999-08-24,0,200
1999-08-31,0,200
1999-09-07,0,200
1999-09-14,0,200
1999-09-21,0,200
1999-09-28,10886,200
1999-10-05,0,200
1999-10-12,0,200
1999-10-19,0,200
1999-10-26,0,200
1999-11-02,544924,200
1999-11-09,8554291,200
1999-11-16,249177,200
1999-11-23,171441446,200
1999-11-30,92303366,200
1999-12-07,13776134,200
1999-12-14,0,200
1999-12-21,0,200
1999-12-28,0,200
2000-01-04,0,200
2000-01-11,0,200
2000-01-18,0,200
2000-01-25,0,200
2000-02-01,0,200
2000-02-08,0,200
2000-02-15,0,200
2000-02-22,0,200
2000-02-29,0,200
2000-03-07,0,200
2000-03-14,0,200
2000-03-21,0,200
2000-03-28,0,200
2000-04-04,0,200
2000-04-11,0,200
2000-04-18,0,200
2000-04-25,0,200
2000-05-02,0,200
2000-05-09,0,200
2000-05-16,0,200
2000-05-23,0,200
2000-05-30,0,200
2000-06-06,0,200
2000-06-13,0,200
2000-06-20,0,200
2000-06-27,17537385,200
2000-07-04,42743635,200
2000-07-11,1723075,200
2000-07-18,0,200
2000-07-25,0,200
2000-08-01,0,200
2000-08-08,0,200
2000-08-15,0,200
2000-08-22,0,200
2000-08-29,0,200
2000-09-05,0,200
2000-09-12,72576,200
2000-09-19,1481760,200
2000-09-26,625363,200
2000-10-03,0,200
2000-10-10,102211,200
2000-10-17,0,200
2000-10-24,0,200
2000-10-31,0,200
2000-11-07,0,200
2000-11-14,0,200
2000-11-21,0,200
2000-11-28,0,200
2000-12-05,0,200
2000-12-12,0,200
2000-12-19,0,200
2000-12-26,1723075,200
2001-01-02,65958278,200
2001-01-09,86903712,200
2001-01-16,80419651,200
2001-01-23,42574291,200
2001-01-30,0,200
2001-02-06,0,200
2001-02-13,0,200
2001-02-20,0,200
2001-02-27,0,200
2001-03-06,1887580,200
2001-03-13,891475,200
2001-03-20,0,200
2001-03-27,0,200
2001-04-03,0,200
2001-04-10,0,200
2001-04-17,0,200
2001-04-24,0,200
2001-05-01,0,200
2001-05-08,0,200
2001-05-15,0,200
2001-05-22,0,200
2001-05-29,0,200
2001-06-05,0,200
2001-06-12,0,200
2001-06-19,0,200
2001-06-26,0,200
2001-07-03,0,200
2001-07-10,0,200
2001-07-17,0,200
2001-07-24,0,200
2001-07-31,0,200
2001-08-07,0,200
2001-08-14,0,200
2001-08-21,0,200
2001-08-28,0,200
2001-09-04,0,200
2001-09-11,0,200
2001-09-18,0,200
2001-09-25,0,200
2001-10-02,0,200
2001-10-09,0,200
2001-10-16,0,200
2001-10-23,0,200
2001-10-30,0,200
2001-11-06,0,200
2001-11-13,0,200
2001-11-20,0,200
2001-11-27,0,200
2001-12-04,0,200
2001-12-11,0,200
2001-12-18,0,200
2001-12-25,0,200
2002-01-01,0,200
2002-01-08,0,200
2002-01-15,0,200
2002-01-22,0,200
2002-01-29,0,200
2002-02-05,0,200
2002-02-12,0,200
2002-02-19,0,200
2002-02-26,0,200
2002-03-05,0,200
2002-03-12,0,200
2002-03-19,0,200
2002-03-26,0,200
2002-04-02,0,200
2002-04-09,0,200
2002-04-16,0,200
2002-04-23,0,200
2002-04-30,0,200
2002-05-07,0,200
2002-05-14,0,200
2002-05-21,0,200
2002-05-28,0,200
2002-06-04,0,200
2002-06-11,0,200
2002-06-18,0,200
2002-06-25,0,200
2002-07-02,0,200
2002-07-09,0,200
2002-07-16,0,200
2002-07-23,0,200
2002-07-30,0,200
2002-08-06,0,200
2002-08-13,0,200
2002-08-20,0,200
2002-08-27,0,200
2002-09-03,0,200
2002-09-10,0,200
2002-09-17,0,200
2002-09-24,9786873,200
2002-10-01,0,200
2002-10-08,0,200
2002-10-15,0,200
2002-10-22,0,200
2002-10-29,0,200
2002-11-05,0,200
2002-11-12,0,200
2002-11-19,0,200
2002-11-26,0,200
2002-12-03,0,200
2002-12-10,0,200
2002-12-17,0,200
2002-12-24,0,200
2002-12-31,0,200
2003-01-07,0,200
2003-01-14,0,200
2003-01-21,0,200
2003-01-28,0,200
2003-02-04,0,200
2003-02-11,0,200
2003-02-18,0,200
2003-02-25,0,200
2003-03-04,0,200
2003-03-11,0,200
2003-03-18,0,200
2003-03-25,0,200
2003-04-01,0,200
2003-04-08,0,200
2003-04-15,0,200
2003-04-22,0,200
2003-04-29,0,200
2003-05-06,0,200
2003-05-13,0,200
2003-05-20,0,200
2003-05-27,0,200
2003-06-03,0,200
2003-06-10,0,200
2003-06-17,0,200
2003-06-24,0,200
2003-07-01,0,200
2003-07-08,0,200
2003-07-15,0,200
2003-07-22,0,200
2003-07-29,0,200
2003-08-05,0,200
2003-08-12,43545,200
2003-08-19,0,200
2003-08-26,0,200
2003-09-02,0,200
2003-09-09,0,200
2003-09-16,0,200
2003-09-23,0,200
2003-09-30,0,200
2003-10-07,0,200
2003-10-14,0,200
2003-10-21,0,200
2003-10-28,0,200
2003-11-04,0,200
2003-11-11,0,200
2003-11-18,0,200
2003-11-25,0,200
2003-12-02,0,200
2003-12-09,0,200
2003-12-16,0,200
2003-12-23,0,200
2003-12-30,0,200
2004-01-06,0,200
2004-01-13,327801,200
2004-01-20,0,200
2004-01-27,0,200
2004-02-03,0,200
2004-02-10,0,200
2004-02-17,0,200
2004-02-24,0,200
2004-03-02,19353,200
2004-03-09,36658742,200
2004-03-16,155631369,200
2004-03-23,19432224,200
2004-03-30,0,200
2004-04-06,0,200
2004-04-13,0,200
2004-04-20,0,200
2004-04-27,0,200
2004-05-04,0,200
2004-05-11,0,200
2004-05-18,0,200
2004-05-25,0,200
2004-06-01,0,200
2004-06-08,0,200
2004-06-15,0,200
2004-06-22,0,200
2004-06-29,0,200
2004-07-06,0,200